User: anonymous   Login
Location: Fremont
(37.5480°N, 121.9880°W)
Time: 12:43:29
(UTC-08:00)
Language:

Cosmos 1766 - Orbit

View from above orbital plane
View from above orbital plane
View from above satellite
View from above satellite

Ground track
Ground track

The orbit data is extracted from the following two-line orbital elements,

1 16881U 86055A   14328.44995258  .00004791  00000-0  32095-3 0   211
2 16881 082.5127 217.3231 0013218 036.0257 324.1858 15.06615633540329
Epoch (UTC): 24 November 2014 10:47:55
Eccentricity: 0.0013218
inclination: 82.5127°
perigee height: 537 km
apogee height: 556 km
right ascension of ascending node: 217.3231°
argument of perigee: 36.0257°
revolutions per day: 15.06615633
mean anomaly at epoch: 324.1858°
orbit number at epoch: 54032

The dashed part of the orbit path shows where the satellite is in the earth's shadow,  

DLR